Шереметьевский

Россия / Московская область     55°58′58″N   37°29′48″E
темп.,
°C
ветер,
м/с
пор.,
м/с
влажн.,
%
обл.,
%
осадки,
мм/ч
давл.,
гПа
погр.,
м
14 мая, пт
пт1400:00+10ююв37925 0.0 1017210
03:00+9ююв24955 0.0 101793
06:00+10юв249297 0.0 1017129
09:00+14юв467072 0.0 1017510
12:00+19ююв566075 0.0 10161348
15:00+21ююв575252 0.1 10141669
18:00+17юв467896 2.4 1013562
21:00+14в4994100 9.3 1011252
15 мая, сб
сб1500:00+14в3897100 1.1 1011199
03:00+13юв3997100 1.3 1010210
06:00+14юв41195100 0.0 1010356
09:00+18ююв5118115 0.0 1010706
12:00+22ю466432 0.5 10081301
15:00+22ююз575783 1.9 10081444
18:00+20ююз69625 1.1 1008832
21:00+16ююз5118048 1.3 1009543
16 мая, вс
вс1600:00+14ююз411881 0.0 1009490
03:00+12ююз411930 0.0 1010396
06:00+13ююз411890 0.0 1011490
09:00+17ююз597021 0.0 1011986
12:00+20юз685687 0.1 10121740
15:00+20юз585520 0.6 10121553
18:00+20зюз58594 0.3 10121364
21:00+15юз23790 0.3 101369
17 мая, пн
пн1700:00+13зюз1288100 0.0 101421
03:00+13ю118999 0.0 101510
06:00+14юв2384100 0.0 101571
09:00+19вюв3463100 0.0 1015471
12:00+23вюв46538 0.0 10131197
15:00+26вюв684721 0.0 10121801
18:00+25юв59575 0.0 10101105
21:00+20юв5127061 0.4 1010446
18 мая, вт
вт1800:00+18юв41281100 0.0 1009370
03:00+16юв4128315 0.0 1008353
06:00+16ююв41083100 0.0 1008341
09:00+19ю4676100 0.3 1009456
12:00+23юв3460100 0.3 1008973
15:00+24ю5753100 0.6 10071587
18:00+16з2493100 4.5 1006283
21:00+14юз369496 9.8 1010242